Regional Weather Roundup
Issued by NWS

Home | Current Version | Previous Version | Graphics & Text | Print | Product List | Glossary On
Versions: 1 2 3 4 5 6 7 8 9 10 11 12 13 14 15 16 17 18 19 20 21 22 23 24 25 26 27 28 29 30 31 32 33 34 35 36 37 38 39 40 41 42 43 44 45 46 47 48 49 50
000
ASUS43 KTOP 290559
RWRKS

WEATHER ROUNDUP FOR KANSAS
NATIONAL WEATHER SERVICE GOODLAND KS
100 AM CDT FRI MAY 29 2015

NOTE:  "FAIR" INDICATES FEW OR NO CLOUDS BELOW 12,000 FEET WITH NO
SIGNIFICANT WEATHER AND/OR OBSTRUCTIONS TO VISIBILITY.

KSZ001>006-013>018-027>032-041>047-290700-
NORTHWEST KANSAS

CITY           SKY/WX    TMP DP  RH WIND       PRES   REMARKS
GOODLAND       CLOUDY    54  52  93 SW6       30.03R
6HR MIN TEMP:  53; 6HR MAX TEMP:  62; 6HR PCP:  0.04;

HAYS           CLOUDY    63  54  72 CALM      29.88F
HILL CITY      CLOUDY    58  55  90 S5        29.97R
6HR MIN TEMP:  57; 6HR MAX TEMP:  70; 6HR PCP:  0.21;

RUSSELL        LGT RAIN  64  57  78 W13       29.85F
6HR MIN TEMP:  60; 6HR MAX TEMP:  74; 6HR PCP:  0.37;

$$

KSZ061>065-074>080-084>089-290700-
SOUTHWEST KANSAS

CITY           SKY/WX    TMP DP  RH WIND       PRES   REMARKS
DODGE CITY     CLOUDY    58  54  86 E7        29.95F
6HR MIN TEMP:  58; 6HR MAX TEMP:  75; 6HR PCP:  0.16;

ELKHART          N/A     58  54  87 NE9         N/A
GARDEN CITY    CLOUDY    56  54  93 SE8       29.96S
6HR MIN TEMP:  56; 6HR MAX TEMP:  64; 6HR PCP:  0.34;

GREAT BEND     CLOUDY    61  55  82 S6        29.92R
LIBERAL        CLOUDY    61  54  77 E8        29.99S
$$

KSZ066>073-081>083-090>101-290700-
SOUTHEAST KANSAS

CITY           SKY/WX    TMP DP  RH WIND       PRES   REMARKS
CHANUTE        CLOUDY    69  66  90 SE6       29.95F
6HR MIN TEMP:  67; 6HR MAX TEMP:  75;

COFFEYVILLE    CLOUDY    70  67  90 SE9       29.93F
6HR MIN TEMP:  68; 6HR MAX TEMP:  74;

HUTCHINSON     CLOUDY    62  58  86 E10       29.94F
6HR MIN TEMP:  62; 6HR MAX TEMP:  78; 6HR PCP:  0.05;

MEDICINE LODGE   N/A     64  57  78 E10       29.93F
NEWTON         CLOUDY    63  57  82 N5        29.98F
PARSONS        CLOUDY    69  67  93 SE5       29.95F
6HR MIN TEMP:  67; 6HR MAX TEMP:  76;

WICHITA INTL   TSTM      67  61  81 N12       29.94F
6HR MIN TEMP:  67; 6HR MAX TEMP:  78; 6HR PCP:  0.03;

WICHITA JABRA  CLOUDY    69  67  93 NW10      29.93F
6HR MIN TEMP:  69; 6HR MAX TEMP:  76;

WICHITA MCCONL TSTM      70  64  83 W18G37    29.93F VSB 1/2
WINFIELD       CLOUDY    71  68  90 SE7       29.93F
6HR MIN TEMP:  70; 6HR MAX TEMP:  76;

$$

KSZ007>012-019>026-033>040-048>060-102>105-290700-
NORTHEAST KANSAS

CITY           SKY/WX    TMP DP  RH WIND       PRES   REMARKS
CONCORDIA      CLOUDY    61  60  97 E9        29.90F
6HR MIN TEMP:  61; 6HR MAX TEMP:  75; 6HR PCP:  0.18;

EMPORIA        CLOUDY    66  65  96 SE7       29.94F
6HR MIN TEMP:  66; 6HR MAX TEMP:  75; 6HR PCP:  0.01;

LAWRENCE       MOCLDY    65  63  93 SE8       29.96F
6HR MIN TEMP:  64; 6HR MAX TEMP:  73;

MANHATTAN      CLOUDY    68  66  93 SW7       29.96S
6HR MIN TEMP:  68; 6HR MAX TEMP:  77; 6HR PCP:  0.01;

OLATHE IND     MOCLDY    64  63  96 SE9       29.97F
6HR MIN TEMP:  64; 6HR MAX TEMP:  71;

OLATHE EXE     MOCLDY    64  63  96 SE7       29.97F
6HR MIN TEMP:  64; 6HR MAX TEMP:  71;

SALINA         CLOUDY    66  58  75 E10       29.93F
6HR MIN TEMP:  65; 6HR MAX TEMP:  77; 6HR PCP: TRACE;

TOPEKA BILLARD MOCLDY    66  64  93 SE8       29.95F
6HR MIN TEMP:  66; 6HR MAX TEMP:  75;

TOPEKA FORBES  MOCLDY    67  64  90 SE9       29.95F
6HR MIN TEMP:  66; 6HR MAX TEMP:  77;

$$



USA.gov is the U.S. government's official web portal to all federal, state and local government web resources and services.